Location: Newark
(42.9277°N, 71.8621°W)
Time: 16:55:21
(UTC+00:00)

Explorer 11/Cluster Stage 4 - Visible Passes

Search period start: 06 June 2020 00:00
Search period end: 16 June 2020 00:00
Orbit: 467 x 1259 km, 28.8° (Epoch: 05 June)

Date Brightness Start Highest point End Pass type
(mag) Time Alt. Az. Time Alt. Az. Time Alt. Az.
06 Jun 8.4 08:09:19 10° S 08:11:16 12° SSE 08:13:21 10° SE visible
07 Jun 8.3 07:58:28 10° S 08:00:22 12° SSE 08:02:25 10° SE visible
08 Jun 8.1 07:48:01 11° S 07:49:30 12° SSE 07:51:27 10° SE visible
09 Jun 8.1 07:37:53 12° S 07:38:39 12° SSE 07:40:27 10° SE visible
10 Jun 8.0 07:27:49 12° SSE 07:27:49 12° SSE 07:29:27 10° SSE visible
11 Jun 8.1 07:17:48 11° SSE 07:17:48 11° SSE 07:18:24 10° SSE visible
